Regional Weather Roundup
Issued by NWS Little Rock, AR

Home | Current Version | Previous Version | Graphics & Text | Print | Product List | Glossary On
Versions: 1 2 3 4 5 6 7 8 9 10 11 12 13 14 15 16 17 18 19 20 21 22 23 24 25 26 27 28 29 30 31 32 33 34 35 36 37 38 39 40 41 42 43 44 45 46 47 48 49 50
086
ASUS44 KLZK 022005
RWRLZK

WEATHER ROUNDUP FOR ARKANSAS
NATIONAL WEATHER SERVICE LITTLE ROCK AR
200 PM CST FRI DEC 02 2016

NOTE: "FAIR" INDICATES FEW OR NO CLOUDS BELOW 12,000 FEET WITH NO
SIGNIFICANT WEATHER AND/OR OBSTRUCTIONS TO VISIBILITY.

ARZ001-003-010-029-022100-
NORTHWEST ARKANSAS

CITY           SKY/WX    TMP DP  RH WIND       PRES   REMARKS
FAYETTEVILLE   SUNNY     61  31  32 CALM      30.19F
FORT SMITH     PTSUNNY   62  30  29 NE7       30.19F
HARRISON       CLOUDY    56  29  35 S3        30.22F
BENTONVILLE    SUNNY     59  28  31 W6        30.20F
ROGERS         SUNNY     58  32  37 S5        30.21F
SILOAM SPGS    MOSUNNY   61  30  31 CALM      30.19F
HIGHFILL       MOSUNNY   60  32  34 SE3       30.19F
SPRINGDALE     MOSUNNY   61  30  31 CALM      30.21F
$$

ARZ004-005-016-022100-
NORTH CENTRAL ARKANSAS

CITY           SKY/WX    TMP DP  RH WIND       PRES   REMARKS
BATESVILLE     SUNNY     63  34  34 E3        30.24F
FLIPPIN        PTSUNNY   55  28  35 CALM      30.21F
MTN HOME       MOSUNNY   56  30  37 E6        30.23F
$$

ARZ040-041-022100-
WEST CENTRAL ARKANSAS

CITY           SKY/WX    TMP DP  RH WIND       PRES   REMARKS
MENA           MOSUNNY   63  32  31 S3        30.20R
MOUNT IDA      SUNNY     63  26  24 CALM      30.19S
$$

ARZ009-017-025-026-028-022100-
NORTHEAST ARKANSAS

CITY           SKY/WX    TMP DP  RH WIND       PRES   REMARKS
CORNING        FAIR      54  32  43 N3        30.27R
JONESBORO      SUNNY     56  37  49 NE5       30.26R
NEWPORT        SUNNY     57  39  51 E3        30.26
WALNUT RIDGE   SUNNY     54  36  50 NE5       30.26R
BLYTHEVILLE    SUNNY     61  33  35 CALM      30.26S
NW BLYTHEVILLE SUNNY     55  34  44 NE5       30.26S
$$

ARZ022-023-033-042-044-022100-
CENTRAL ARKANSAS

CITY           SKY/WX    TMP DP  RH WIND       PRES   REMARKS
LITTLE ROCK    PTSUNNY   62  28  27 E5        30.22F
N LITTLE ROCK    N/A     62  29  28 CALM      30.23F
JACKSONVILLE   SUNNY     64  29  27 VRB1      30.21F
SEARCY         SUNNY     63  30  28 CALM      30.25S
HOT SPRINGS    SUNNY     61  26  26 CALM      30.21F
RUSSELLVILLE   SUNNY     61  33  35 VRB3      30.20F
$$

ARZ036-022100-
EAST ARKANSAS

CITY           SKY/WX    TMP DP  RH WIND       PRES   REMARKS
WEST MEMPHIS   SUNNY     61  30  31 VRB5      30.24S
$$

ARZ050-053-066-070-073-022100-
SOUTHWEST ARKANSAS

CITY           SKY/WX    TMP DP  RH WIND       PRES   REMARKS
ARKADELPHIA    FAIR      60  34  37 CALM      30.22F
CAMDEN         MOSUNNY   64  23  20 SE8       30.19F
TEXARKANA      MOSUNNY   62  33  33 E6        30.18F
EL DORADO      SUNNY     62  29  28 E6        30.19F
DE QUEEN       PTSUNNY   61  34  36 E6        30.17F
$$

ARZ056-057-069-022100-
SOUTHEAST ARKANSAS

CITY           SKY/WX    TMP DP  RH WIND       PRES   REMARKS
PINE BLUFF     SUNNY     62  37  39 E8        30.21F
STUTTGART      SUNNY     61  34  36 SE3       30.24S
MONTICELLO       N/A     65  29  25 SE6       30.20F

$$






USA.gov is the U.S. government's official web portal to all federal, state and local government web resources and services.